Flag for Brazil Weather past 2 weeks in Foz do Iguaçu, Paraná, Brazil

Now
70 °F

Low clouds.


Feels Like: 70 °F
Forecast: 70 / 84 °F
Wind: 3 mph from South

Location: Foz Do Iguacu Aeroporto

Current Time: Oct 1, 2014 at 10:03:55 AM

Latest Report: Oct 1, 2014 at 9:00 AM


Visibility: 4 mi

Pressure: 30.04 "Hg

Humidity: 94%

Dew point: 68 °F

Location of Foz do IguaçuLocation

Historic Weather in Foz do Iguaçu — Graph

°F

Foz do Iguaçu temperature yesterday

Maximum temperature yesterday: 82 °F (at 12:00 PM)
Minimum temperature yesterday: 34 °F (at 11:00 PM)
Average temperature yesterday: 72 °F

Past Weeks' High & Low Weather Summary

 TemperatureHumidityPressure
High88 °F (Sep 23, 2:00 PM)100% (Sep 18, 2:00 PM)30.12 "Hg (Sep 18, 2:00 PM)
Low32 °F (Sep 26, 7:00 AM)24% (Sep 28, 2:00 PM)29.71 "Hg (Sep 24, 3:00 AM)
Average69 °F81%29.92 "Hg
* Reported Sep 16 9:00 AM — Oct 1 9:00 AM, Foz do Iguaçu, Weather by CustomWeather, © 2014

Note: Actual official high and low records may vary slightly from our data, if they occured in-between our weather recording intervals... More about our weather records

Advertising

Foz do Iguaçu weather history for previous 24 hours

 ConditionsComfort  
Time TempWeatherWind HumidityBarometerVisibility
9:00 AM
Oct 1
70 °FLow clouds.3 mph94%30.04 "Hg4 mi
8:00 AM70 °FFog.2 mph94%29.98 "Hg1 mi
7:00 AM70 °FFog.2 mph94%29.95 "Hg2 mi
6:00 AM70 °FMore clouds than sun.2 mph94%29.92 "Hg4 mi
5:00 AM68 °FFog.2 mph100%29.89 "Hg2 mi
4:00 AM70 °FLow clouds.2 mph94%29.89 "HgN/A
3:00 AM70 °FPassing clouds.2 mph94%29.89 "HgN/A
2:00 AM70 °FMostly cloudy.2 mph94%29.86 "HgN/A
1:00 AM70 °FThunderstorms. Overcast.2 mph94%N/AN/A
12:00 AM70 °FThunderstorms. Mostly cloudy.6 mph94%N/AN/A
11:00 PM
Sep 30
34 °FThunderstorms. Mostly cloudy.6 mph100%29.92 "HgN/A
10:00 PM68 °FThunderstorms. Mostly cloudy.5 mph100%N/A5 mi
9:00 PM70 °FThunderstorms. Fog.20 mphN/AN/A2 mi
8:00 PM73 °FThunderstorms. Partly cloudy.17 mph83%29.77 "HgN/A
7:00 PM75 °FPassing clouds.17 mph78%29.77 "HgN/A
6:00 PM77 °FPassing clouds.20 mph79%29.74 "HgN/A
5:00 PM79 °FPassing clouds.20 mph74%29.71 "HgN/A
4:00 PM81 °FScattered clouds.16 mph74%29.77 "HgN/A
3:00 PM81 °FScattered clouds.16 mph74%29.80 "HgN/A
2:00 PMN/ALight rain.13 mphN/AN/AN/A
1:00 PM82 °FPartly sunny.10 mph70%29.86 "HgN/A
12:00 PM82 °FScattered showers. Partly sunny.14 mph66%29.89 "HgN/A
11:00 AM77 °FThundershowers. Partly sunny.6 mph79%29.92 "HgN/A
10:00 AM79 °FSunny.10 mph70%29.89 "Hg10 mi
Weather by CustomWeather, © 2014

See weather overviewHow to use our weather pages